Regional Weather Roundup
Issued by NWS Bismarck, ND

Home | Current Version | Previous Version | Text Only | Print | Product List | Glossary On
Versions: 1 2 3 4 5 6 7 8 9 10 11 12 13 14 15 16 17 18 19 20 21 22 23 24 25 26 27 28 29 30 31 32 33 34 35 36 37 38 39 40 41 42 43 44 45 46 47 48 49 50
000
ASUS43 KBIS 312110
RWRBIS

NWR BROADCAST TEXT
NATIONAL WEATHER SERVICE BISMARCK ND
300 PM CST SAT JAN 31 2015

NOTE: "FAIR" INDICATES FEW OR NO CLOUDS BELOW 12,000 FEET WITH NO
SIGNIFICANT WEATHER AND/OR OBSTRUCTIONS TO VISIBILITY.


CITY           SKY/WX    TMP DP  RH WIND       PRES   REMARKS
WILLISTON      LGT SNOW   7   0  73 NE15      30.33R VSB 1   WCI -10
MINOT          LGT SNOW   2  -4  76 NE12      30.37R VSB 3/4 WCI -15
MINOT AFB      LGT SNOW   1  -2  85 NE14      30.38S WCI -17
BISMARCK       CLOUDY    14   2  58 E14       30.28S WCI  -1
DICKINSON      LGT SNOW  12   7  80 E15       30.13F WCI  -4
GARRISON         N/A      4  -1  80 E12       30.31R WCI -12
HETTINGER ARPT CLOUDY    16  13  88 E22G29    30.09F FOG     WCI  -2
JAMESTOWN      CLOUDY     9  -4  55 NE23      30.29F WCI -11
BEACH          LGT SNOW  12  12 100 MISG      30.12R
CARRINGTON     CLOUDY     5  -4  66 MISG      30.34S
CROSBY         FAIR       3  -2  78 E13       30.40R WCI -14
HARVEY         LGT SNOW   0  -6  78 NE18      30.36S WCI -22
HAZEN          FLURRIES   9   0  66 NE13G20   30.30S WCI  -7
LINTON         FAIR      16   5  62 NE13G21   30.23R WCI   2
MANDAN         CLOUDY    14   3  62 E15G23    30.26S WCI  -1
OAKES            N/A     12   1  62 N24       30.26R WCI  -8
RUGBY          FAIR      -4 -13  65 NE17      30.40S WCI -26
TIOGA          LGT SNOW   0  -2  92 E16       30.35R VSB 3/4 WCI -21
WATFORD CITY   LGT SNOW   7   1  78 E18       30.27R VSB 1   WCI -12
$$

CITY           SKY/WX    TMP DP  RH WIND       PRES   REMARKS
GRAND FORKS    PTSUNNY    1  -9  62 N21       30.44F WCI -21
GRAND FORKS AF MOSUNNY   -1 -11  61 N21       30.44F WCI -23
DEVILS LAKE    PTSUNNY   -2 -15  55 NE21      30.37F WCI -25
FARGO          CLOUDY    13  -4  46 N22       30.34S WCI  -6
CANDO          FAIR      -4 -13  65 NE17G23   30.42F WCI -26
CAVALIER       MOCLDY    -4 -13  65 N17G24    30.52S WCI -26
GWINNER        CLEAR     16   1  53 NE21      30.28R WCI  -2
ROLLA          FAIR      -8 -15  71 NE20      30.41S WCI -32
WALHALLA         N/A     -4 -13  65 N15       30.52F WCI -25
$$

CITY           SKY/WX    TMP DP  RH WIND       PRES   REMARKS
ABERDEEN       PTSUNNY   18   2  49 NE16G29   30.21F WCI   3
MOBRIDGE       CLOUDY    19   5  54 NE17G23   30.16F WCI   4
BUFFALO          N/A     22  19  89 E10       29.95S WCI  11
RAPID CITY     FRZ RAIN  25  24  96 E9        29.97F VSB 1/2 WCI  15
GLASGOW        SNOW      12   5  73 NE22      30.27R VSB 1/2 WCI  -7
SIDNEY         CLOUDY    12   7  79 NE13G23   30.29R WCI  -3
WOLF POINT     LGT SNOW  13   6  74 NE22G29   30.30R WCI  -6
GLENDIVE       CLOUDY    16  10  79 NE20      30.15R VSB 3/4 WCI  -1
MILES CITY     LGT SNOW  25  22  88 NE18      30.05R VSB 3/4 WCI  11
BAKER          MIX PCPN  20  17  88 E22G30    30.04R FOG     WCI   3
$$

CITY           SKY/WX    TMP DP  RH WIND       PRES   REMARKS
BILLINGS       SNOW      27  25  92 NE17      30.06R VSB 1/2 WCI  14
GREAT FALLS    LGT SNOW  14   9  80 NW18      30.28S VSB 3/4 WCI  -3
REGINA         CLOUDY     0  -9  65 NE7       30.48S WCI -13
ESTEVAN        CLOUDY    -2 -11  65 E15       30.42R WCI -22
$$




USA.gov is the U.S. government's official web portal to all federal, state and local government web resources and services.